Regional Weather Roundup
Issued by NWS Midland/Odessa, TX

Home | Current Version | Previous Version | Text Only | Print | Product List | Glossary On
Versions: 1 2 3 4 5 6 7 8 9 10 11 12 13 14 15 16 17 18 19 20 21 22 23 24 25 26 27 28 29 30 31 32 33 34 35 36 37 38 39 40 41 42 43 44 45 46 47 48 49 50
000
ASUS44 KMAF 042010
RWRMAF
MIDLAND AREA WEATHER ROUNDUP
NATIONAL WEATHER SERVICE MIDLAND TX
200 PM CST WED MAR 04 2015

...IN SOUTHWEST TEXAS AND SOUTHEAST NEW MEXICO...

CITY           SKY/WX    TMP DP  RH WIND       PRES   REMARKS
ALPINE         CLOUDY    54  42  64 NE14      30.00S
ANDREWS        DRIZZLE   38  38  99 E13       30.02R WCI  30
ARTESIA        CLOUDY    39  36  87 NE24G32   29.99R WCI  28
BIG SPRING     CLOUDY    35  32  90 N22G31    30.04F WCI  23
CARLSBAD       LGT RAIN  51  41  68 NW14      29.94R
DRYDEN           N/A     72  44  36 N13G22    29.83F
FORT STOCKTON  CLOUDY    57  43  59 N22G31    29.94S
GUAD PASS      NOT AVBL
HOBBS          LGT RAIN  36  36 100 NE18G31   30.02R FOG     WCI  25
MARFA          CLOUDY    57  43  58 N16       29.93F
MIDLAND AIRPK  LGT RAIN  38  37  96 NE15G22   30.02F WCI  29
MIDLAND INTL   RAIN      38  36  92 NE18      30.01S FOG     WCI  28
ODESSA         LGT RAIN  39  36  89 NE16      30.00F FOG     WCI  30
PECOS          CLOUDY    54  49  82 E7        29.94F
PRESIDIO       FAIR      72  46  39 W7        29.82F
SEMINOLE       DRIZZLE   34  33  96 NE14G23   30.05R WCI  24
SNYDER         MIX PCPN  29  28  95 N15G26    30.06R WCI  17
WINK           LGT RAIN  52  47  83 E8        29.93F
$$
...OTHER STATIONS IN TEXAS...

CITY           SKY/WX    TMP DP  RH WIND       PRES   REMARKS
ABILENE        FRZ RAIN  31  30  96 N21G35    30.05R FOG     WCI  18
AMARILLO       LGT SNOW  20  17  88 N21       30.15S FOG     WCI   4
AUSTIN         CLOUDY    69  69 100 SW6       29.80F FOG
BROWNSVILLE    CLOUDY    79  69  71 S17       29.77F
CORPUS CHRISTI CLOUDY    76  69  79 S20       29.77F
DALLAS FTW     LGT RAIN  36  33  89 N25G32    30.00R WCI  24
DEL RIO        CLOUDY    67  55  65 NW5       29.81F
EL PASO        PTSUNNY   59  27  29 SW23      29.90F
HOUSTON INT    PTSUNNY   82  64  54 S14G20    29.82F
LUBBOCK        HVY SNOW  24  22  91 NE22G31   30.07F VSB 1/8 WCI   9
SAN ANGELO     LGT RAIN  41  38  89 N17       29.97R WCI  32
SAN ANTONIO    DRZL/FOG  68  65  90 CALM      29.81F VSB 1
WACO           LGT RAIN  48  47  96 N21G30    29.91R FOG
WICHITA FALLS  NOT AVBL
$$
...OTHER LOCATIONS IN NEW MEXICO...

CITY           SKY/WX    TMP DP  RH WIND       PRES   REMARKS
ALAMAGORDO     MOSUNNY   57  28  33 NW12G18   29.90F
ALBUQUERQUE    PTSUNNY   48  19  31 N12       29.95F
CANNON AFB     CLOUDY    21  19  93 NE22      30.09R WCI   5
CLOVIS         CLOUDY    21  18  86 NE23G29   30.10R WCI   5
HOLLOMAN AFB   PTSUNNY   58  29  34 W9        29.89F
ROSWELL        CLOUDY    37  30  75 NE24G31   30.01F WCI  26
RUIDOSO        PTSUNNY   36  28  75 SE14G20   29.96R WCI  27
SANTA FE       PTSUNNY   42  20  41 W15G24    29.90F WCI  34
TRUTH OR CONSE MOSUNNY   53  26  35 N7        29.93F
TUCUMCARI      CLOUDY    23  20  88 NE21      30.10F WCI   8
$$



USA.gov is the U.S. government's official web portal to all federal, state and local government web resources and services.